Satellite-Ground Cal/Val Site Overpasses Predictions

Prediction of Satellite NPP Overpassing Cal/Val Site: Antarctic Dome C

Ground Cal/Val Site Location: Latitude: -75.10, Longitude: 123.35; Satellite-Ground Site NADIR distance within 100 km.

Table of predicted overpasses for the next 14.0 days since TLE Epoch: 7/10/2015
Interval Starting Time Ending Time Minimum Distance Time Minimum Distance (km)
1 07/11/2015 07:29:32 07/11/2015 07:30:00 07/11/2015 07:29:46 32.90
2 07/13/2015 15:11:56 07/13/2015 15:12:06 07/13/2015 15:12:01 93.57
3 07/14/2015 14:52:57 07/14/2015 14:53:25 07/14/2015 14:53:11 17.68
4 07/16/2015 07:35:45 07/16/2015 07:36:14 07/16/2015 07:35:59 4.02
5 07/19/2015 14:59:10 07/19/2015 14:59:39 07/19/2015 14:59:24 18.79
6 07/20/2015 14:40:27 07/20/2015 14:40:40 07/20/2015 14:40:34 88.24
7 07/21/2015 07:41:59 07/21/2015 07:42:26 07/21/2015 07:42:12 39.85
8 07/22/2015 07:23:11 07/22/2015 07:23:32 07/22/2015 07:23:21 70.14


NCC Satellite Cal/Val Overpasses Prediction Service
